Regional Weather Roundup
Issued by NWS

Home | Current Version | Previous Version | Graphics & Text | Print | Product List | Glossary On
Versions: 1 2 3 4 5 6 7 8 9 10 11 12 13 14 15 16 17 18 19 20 21 22 23 24 25 26 27 28 29 30 31 32 33 34 35 36 37 38 39 40 41 42 43 44 45 46 47 48 49 50
998
ASUS43 KTOP 262259
RWRKS

WEATHER ROUNDUP FOR KANSAS
NATIONAL WEATHER SERVICE GOODLAND KS
600 PM CDT SUN MAR 26 2017

NOTE:  "FAIR" INDICATES FEW OR NO CLOUDS BELOW 12,000 FEET WITH NO
SIGNIFICANT WEATHER AND/OR OBSTRUCTIONS TO VISIBILITY.

KSZ001>006-013>018-027>032-041>047-270000-
NORTHWEST KANSAS

CITY           SKY/WX    TMP DP  RH WIND       PRES   REMARKS
GOODLAND       CLOUDY    47  43  86 N7        29.89R
HAYS           LGT RAIN  46  44  93 E7        29.89R FOG
HILL CITY      CLOUDY    47  45  93 NE3       29.89R
RUSSELL        CLOUDY    46  44  93 NE8       29.87R
$$

KSZ061>065-074>080-084>089-270000-
SOUTHWEST KANSAS

CITY           SKY/WX    TMP DP  RH WIND       PRES   REMARKS
DODGE CITY     LGT RAIN  51  43  74 N17       29.81R
GARDEN CITY    CLOUDY    46  42  86 N13       29.85R
GREAT BEND     CLOUDY    48  44  86 NE13      29.86R
LIBERAL        CLOUDY    52  39  62 NW20G26   29.84R
$$

KSZ066>073-081>083-090>101-270000-
SOUTHEAST KANSAS

CITY           SKY/WX    TMP DP  RH WIND       PRES   REMARKS
CHANUTE        CLOUDY    62  49  62 E3        29.86R
COFFEYVILLE    CLOUDY    66  50  56 SE12      29.80S
HUTCHINSON     CLOUDY    51  47  86 NE14G21   29.82F
MEDICINE LODGE   N/A     61  48  62 NE23      29.71F
NEWTON         CLOUDY    52  49  89 NE5       29.85R
PARSONS        CLOUDY    65  49  56 S3        29.84R
WICHITA INTL   CLOUDY    56  55  97 NE14      29.80R
WICHITA JABRA  CLOUDY    54  50  86 NE13      29.81S
WINFIELD       PTSUNNY   65  50  58 E12G21    29.74F
$$

KSZ007>012-019>026-033>040-048>060-102>105-270000-
NORTHEAST KANSAS

CITY           SKY/WX    TMP DP  RH WIND       PRES   REMARKS
CONCORDIA      LGT RAIN  49  45  86 S3        29.92R
EMPORIA        LGT RAIN  52  49  89 NE12      29.85R
LAWRENCE       CLOUDY    53  46  77 NE8       29.87F
MANHATTAN      LGT RAIN  51  44  77 E7        29.89R
OLATHE IND     CLOUDY    53  45  74 NE7       29.88S
OLATHE EXE     CLOUDY    52  46  80 E6        29.88S
SALINA         RAIN      51  47  86 NE7       29.90S FOG
TOPEKA BILLARD CLOUDY    52  46  80 NE12      29.86S
TOPEKA FORBES  CLOUDY    53  45  74 NE8       29.85F
$$




USA.gov is the U.S. government's official web portal to all federal, state and local government web resources and services.